Wind_Speed
13 13 12 12 12 12 12 11 12 11 9 7 4 2 2 1 2 3 2 3 3 4 6 6 7 7 7 6 6 8 10 11 12 11 10 12 12 12 13 13 13 14
13 13 13 13 13 12 12 12 13 11 9 6 4 3 3 2 3 3 2 2 3 4 5 6 6 6 6 7 7 9 10 11 12 11 11 12 12 12 13 14 14 14
14 15 15 14 14 14 13 13 13 11 9 7 5 4 4 4 5 4 1 1 2 3 4 5 6 6 6 7 7 8 9 10 11 11 11 12 12 12 13 13 14 14
16 15 16 16 15 14 14 14 14 12 10 8 6 6 6 5 6 5 2 1 1 3 4 5 5 5 6 7 7 8 9 10 10 10 10 12 12 12 13 13 13 15
17 15 16 17 17 16 15 16 16 14 11 9 8 8 7 7 7 6 4 3 2 3 4 4 4 5 6 6 7 8 9 10 10 9 10 12 12 12 12 11 12 14
17 16 16 18 17 17 17 17 16 14 12 11 10 9 9 8 8 8 6 4 3 3 4 5 5 5 6 7 7 8 9 9 9 8 9 11 11 11 11 10 11 12
19 17 17 18 18 18 18 18 17 15 13 12 11 11 10 9 10 9 8 6 4 4 4 5 6 6 7 7 7 8 8 8 8 7 8 10 10 10 9 9 9 11
21 18 18 18 19 20 20 19 18 16 15 14 13 12 11 11 11 11 10 8 6 5 5 6 6 6 7 7 6 7 8 7 6 5 6 7 8 8 8 8 8 9
22 21 20 19 20 21 22 22 20 18 16 16 15 14 13 12 13 12 12 11 9 8 7 7 7 7 7 7 6 5 6 6 5 4 4 5 6 7 8 7 6 7
24 23 22 22 21 21 23 23 21 19 18 18 17 17 15 15 14 15 14 14 12 11 10 9 9 9 8 8 7 6 5 5 5 4 3 4 5 7 7 6 5 7
26 25 24 24 23 22 23 24 23 21 20 20 20 19 18 17 17 17 17 17 16 15 13 12 11 10 10 10 9 8 7 6 5 4 4 5 6 6 6 5 5 6
28 27 27 26 25 23 23 25 25 23 22 22 22 21 20 20 20 20 20 20 19 18 17 15 14 13 12 12 12 11 10 8 7 6 6 6 7 7 6 6 5 7
30 30 29 28 27 25 24 25 26 26 24 24 24 24 23 23 23 22 22 22 22 21 20 18 16 15 15 15 14 13 13 11 9 8 8 8 8 8 7 7 7 8
31 31 31 30 29 27 26 26 28 28 27 26 26 27 26 26 26 25 25 25 24 24 23 21 20 19 18 17 17 16 15 13 12 11 11 11 11 10 10 9 9 10
32 32 32 31 30 29 28 28 28 29 29 29 29 29 29 28 28 27 26 27 27 26 26 25 23 22 21 20 19 18 17 16 14 14 13 13 13 13 12 11 11 11
33 33 32 32 32 32 32 31 30 30 30 30 30 30 30 30 29 28 28 28 29 29 29 28 27 25 23 22 21 20 20 19 17 16 15 15 15 16 15 14 14 14
33 34 33 34 34 34 34 33 32 32 32 31 31 31 31 31 30 30 30 30 30 31 31 31 30 28 26 24 23 22 21 21 20 19 18 17 17 17 18 18 17 16
34 34 34 34 35 34 35 35 34 34 34 33 33 33 33 33 32 32 32 32 32 33 34 33 32 30 28 27 25 25 24 23 22 22 20 19 19 18 19 20 19 18
35 35 35 35 35 35 35 35 34 35 35 35 35 34 34 34 34 34 34 34 34 35 36 35 34 32 30 29 28 27 26 25 24 23 22 21 20 20 20 20 20 19
34 34 35 36 36 35 34 34 35 36 37 37 36 34 34 34 35 35 35 35 36 37 38 37 37 35 33 31 30 29 28 27 26 25 23 22 22 20 20 20 21 21
33 33 35 36 36 35 34 35 36 37 37 37 36 35 35 35 35 36 37 37 38 38 38 39 39 38 36 34 32 32 31 30 29 27 26 24 23 21 19 20 21 21
33 33 35 36 35 34 34 35 37 37 37 36 35 35 36 36 36 38 39 39 39 39 39 40 40 39 38 36 34 34 34 33 31 30 28 27 25 22 21 20 22 22
33 33 34 35 35 33 34 36 37 37 36 35 34 34 36 37 38 40 41 41 40 40 40 40 41 41 41 39 38 37 37 36 34 32 30 28 27 24 23 22 22 22
32 33 34 35 34 34 36 38 38 36 34 33 33 34 35 38 40 41 41 42 41 41 42 42 43 44 43 41 40 41 41 39 37 34 32 30 28 26 24 23 22 22
31 32 34 34 34 35 36 34 30 27 25 25 27 30 34 37 39 39 39 40 40 42 43 43 44 44 44 44 44 44 44 41 38 36 34 32 31 29 26 24 24 24
29 30 32 33 33 34 32 28 26 27 25 24 26 29 33 35 37 37 36 37 39 41 42 43 44 44 44 45 46 46 46 43 40 38 36 35 34 32 30 27 26 26
Wind_Direction
205 204 204 201 196 192 187 182 179 178 178 179 184 208 245 232 154 138 118 100 91 87 94 105 110 111 112 113 114 113 111 109 108 107 105 103 103 103 104 105 105 104
210 211 210 205 199 194 190 185 183 182 182 183 191 209 215 195 166 155 120 84 78 86 104 116 118 114 111 118 124 121 119 115 113 112 110 110 110 109 109 108 107 107
214 217 218 213 204 197 193 190 188 186 187 192 198 208 211 195 178 171 142 64 69 96 117 127 125 117 110 119 127 125 121 118 116 116 114 113 113 111 111 109 108 106
218 221 221 218 211 203 197 194 192 190 192 199 206 216 218 201 189 188 185 159 107 117 132 136 132 124 117 123 129 129 127 121 119 119 115 113 113 111 110 109 107 106
222 225 221 218 214 210 204 198 194 195 197 203 211 221 222 209 202 204 199 183 144 134 147 153 150 140 133 133 133 131 131 127 125 123 116 114 113 110 109 108 107 107
223 227 222 217 214 213 210 204 199 200 202 206 211 218 223 217 213 213 206 194 173 162 170 171 169 159 149 145 138 134 132 129 129 125 116 115 113 111 109 106 107 107
222 226 223 219 218 219 217 209 206 206 205 208 213 219 225 223 218 217 212 206 199 193 190 188 183 172 164 158 146 139 136 132 132 127 116 115 115 113 112 107 106 106
222 224 223 222 223 225 223 217 214 212 210 213 216 221 229 229 223 220 217 215 213 207 202 200 196 186 178 175 163 150 144 138 136 128 118 121 122 119 117 115 111 107
222 223 222 224 227 228 226 222 219 217 217 218 219 223 229 230 227 224 221 220 221 218 215 211 206 201 195 192 187 171 156 149 144 133 123 129 134 130 126 125 121 111
223 224 224 226 228 229 227 224 222 220 220 222 222 225 227 228 228 227 223 222 222 222 221 218 215 212 207 203 201 194 180 167 161 151 142 145 144 138 135 131 123 114
225 226 227 228 229 230 228 225 223 222 223 224 224 226 226 225 225 226 225 224 225 226 224 222 220 218 215 211 206 202 197 188 179 169 159 156 150 142 137 132 125 118
227 227 229 230 231 232 230 226 225 224 225 226 226 226 225 224 225 226 226 227 228 229 228 224 221 220 219 216 209 205 200 193 187 176 165 160 154 149 144 137 134 129
228 228 229 231 232 234 233 229 227 227 228 229 228 228 227 226 226 227 227 229 229 229 229 227 224 221 218 215 211 206 201 194 188 177 167 164 160 155 154 149 142 138
230 231 231 232 233 235 236 234 231 230 232 232 230 229 231 231 230 229 228 228 228 229 228 226 224 221 218 214 209 204 200 195 189 183 173 166 164 160 157 156 150 144
231 232 233 233 234 235 237 236 235 235 236 235 232 232 234 235 235 233 231 228 227 226 226 225 224 223 220 216 211 204 199 196 191 186 180 171 167 163 161 160 157 153
231 232 233 234 234 235 236 237 238 238 239 238 236 235 237 237 236 234 232 230 227 225 224 224 224 224 222 219 215 209 201 196 191 186 183 180 174 168 167 165 163 160
231 232 233 234 234 235 235 236 238 239 241 241 239 238 238 238 236 235 233 231 229 226 225 225 225 224 221 218 216 211 204 198 192 187 184 185 183 177 173 172 169 166
231 232 233 234 234 234 235 236 237 238 240 241 240 238 237 236 235 235 234 232 229 227 226 226 226 225 221 218 214 210 207 202 196 191 187 186 186 183 179 177 175 171
230 231 232 233 234 234 235 235 235 236 237 238 239 239 237 235 234 234 234 232 229 227 226 227 227 225 221 217 214 210 208 205 198 194 191 189 187 185 183 182 179 174
230 230 231 234 235 234 234 233 233 234 235 236 237 236 234 233 232 233 233 232 230 228 227 227 226 225 221 216 213 210 208 206 201 196 194 191 188 186 186 187 184 178
230 231 232 234 235 234 233 232 232 232 233 234 233 233 233 233 232 233 233 233 231 228 226 226 226 225 221 216 212 211 209 205 201 197 194 191 188 187 189 190 188 185
231 232 234 235 235 234 233 233 233 232 232 231 230 231 232 232 232 233 233 232 231 227 225 225 225 224 220 216 213 211 207 203 199 196 193 191 188 187 189 191 191 190
233 233 235 236 235 233 233 234 235 234 233 230 228 228 228 229 230 232 233 232 229 225 224 224 224 224 220 215 213 210 204 199 197 195 193 191 189 187 188 190 192 193
237 236 236 237 236 234 235 236 236 236 235 231 228 227 228 230 232 232 233 231 227 226 225 224 225 225 220 214 212 210 204 199 197 194 191 190 189 188 188 190 192 194
244 240 239 239 239 238 238 238 238 238 240 239 236 233 233 234 234 232 231 230 228 228 227 225 225 225 220 213 211 209 204 199 194 190 188 188 189 188 188 190 192 193
253 247 244 243 243 244 243 240 237 238 239 239 239 240 240 239 236 232 231 231 230 229 227 225 225 224 220 213 209 208 204 197 192 189 188 188 189 189 187 188 191 192
Height
808 809 811 811 812 813 814 814 815 816 817 817 818 818 818 817 817 817 817 817 817 817 817 817 817 817 817 816 816 816 816 816 816 816 816 816 816 816 816 817 816 817
807 809 810 811 812 812 813 814 815 816 816 817 817 818 818 818 818 818 818 818 818 818 818 818 818 818 818 817 817 817 817 817 817 817 818 817 818 818 818 818 818 818
806 807 808 810 811 811 812 813 814 815 816 817 817 818 818 818 818 818 818 818 818 818 819 819 819 819 819 819 819 819 818 819 819 819 819 819 819 819 819 820 820 820
805 806 807 809 809 810 812 813 814 815 816 817 817 817 818 818 818 818 819 819 819 819 819 820 820 820 820 820 820 820 820 820 820 820 821 820 821 821 821 821 821 821
804 805 806 808 809 810 811 812 813 814 815 816 817 817 818 818 819 819 819 820 820 820 820 820 821 821 821 821 821 822 822 821 822 822 822 822 822 822 822 822 822 822
803 804 805 807 808 809 810 811 812 814 815 816 816 817 818 818 819 819 820 821 821 821 821 821 821 822 822 823 822 823 823 823 823 823 823 823 823 824 824 824 824 824
802 803 804 806 807 808 810 811 812 813 814 816 816 817 817 818 819 820 820 821 821 821 821 821 822 822 823 823 823 823 823 824 824 824 824 824 824 825 825 825 825 825
801 802 803 805 806 807 809 810 811 813 814 815 816 816 817 818 819 820 820 821 821 821 821 821 822 822 823 823 823 823 823 824 825 825 825 825 825 825 825 826 826 826
799 801 802 803 804 806 807 809 810 812 813 814 815 815 816 817 818 819 819 820 820 820 821 821 821 822 822 823 823 823 823 824 824 825 825 825 825 825 826 826 826 826
798 799 800 801 803 804 806 808 809 811 812 812 813 814 815 816 817 818 818 819 819 819 820 820 821 821 821 822 822 822 823 823 823 824 824 825 825 825 826 826 827 827
796 797 798 799 801 802 804 806 808 809 810 811 812 812 813 814 815 816 817 817 817 818 819 819 819 820 820 821 821 821 822 822 822 823 824 824 825 826 826 827 827 827
794 795 796 798 799 801 802 804 806 807 808 809 810 811 811 812 813 814 814 815 816 816 817 818 818 819 819 819 820 820 821 821 822 823 824 824 825 826 826 827 827 828
791 793 794 796 797 799 801 802 804 805 806 807 808 809 809 810 810 811 812 813 814 814 815 816 816 817 817 818 819 819 820 821 822 822 823 824 825 826 826 827 828 828
789 790 792 793 795 797 799 800 801 802 803 805 806 806 807 807 808 808 809 810 811 812 813 814 815 815 815 816 817 818 820 820 821 822 823 823 824 825 826 827 827 828
786 788 789 791 792 794 795 797 798 799 801 802 803 804 805 805 806 806 807 808 809 810 811 812 812 813 813 814 816 817 818 819 820 821 822 823 824 825 826 826 827 828
784 785 786 788 789 790 792 793 795 796 797 798 799 801 802 802 803 804 805 805 806 807 808 809 810 810 811 813 814 815 816 817 819 820 821 822 823 824 825 826 827 828
781 782 783 784 785 786 788 789 791 792 793 795 796 797 798 799 800 801 802 803 804 804 805 806 807 808 810 811 812 813 814 815 817 819 820 821 822 822 823 825 826 827
778 779 780 780 781 783 784 786 788 789 790 791 792 793 794 795 796 797 798 800 801 801 802 803 804 806 807 809 810 811 812 813 815 816 818 819 820 821 822 824 825 826
774 775 776 777 778 779 781 782 783 784 785 786 787 789 791 792 793 794 795 796 797 798 799 800 801 803 804 806 808 809 810 811 812 814 815 817 819 820 822 823 824 826
771 772 772 773 774 775 777 778 778 779 780 781 783 785 786 788 789 791 792 792 793 794 795 796 798 799 801 803 805 806 808 809 810 812 814 815 817 819 821 822 824 825
767 768 769 769 770 771 772 773 773 774 775 777 778 780 781 783 785 786 787 788 789 790 792 793 794 796 798 800 802 803 805 806 808 809 811 813 816 818 820 821 823 824
764 765 765 766 767 768 768 768 769 769 771 772 774 775 777 778 780 781 781 782 784 786 788 789 791 792 794 796 798 800 801 803 805 806 809 811 813 815 818 819 821 823
760 762 762 762 763 764 764 764 764 765 767 769 771 772 772 773 774 774 775 776 778 780 782 784 786 787 789 791 794 795 796 799 801 803 806 809 811 813 815 817 819 821
758 758 758 759 760 760 759 759 760 762 765 767 768 769 769 770 770 770 771 771 773 774 776 777 779 781 783 787 789 790 792 794 797 800 803 807 810 811 813 815 817 819
757 756 756 756 756 756 756 758 760 762 765 767 769 769 769 768 768 769 769 769 770 771 771 772 773 775 778 781 784 785 787 789 793 796 800 804 807 809 811 813 815 817
755 754 754 753 754 754 755 758 759 758 759 761 764 766 767 767 767 766 767 767 768 768 768 768 769 771 773 776 779 781 783 785 788 792 794 797 801 804 807 810 812 814